Regional Weather Roundup
Issued by NWS

Home | Current Version | Previous Version | Graphics & Text | Print | Product List | Glossary Off
Versions: 1 2 3 4 5 6 7 8 9 10 11 12 13 14 15 16 17 18 19 20 21 22 23 24 25 26 27 28 29 30 31 32 33 34 35 36 37 38 39 40 41 42 43 44 45 46 47 48 49 50

000
ASUS43 KTOP 040208
RWRKS

WEATHER ROUNDUP FOR KANSAS
NATIONAL WEATHER SERVICE GOODLAND KS
800 PM CST TUE MAR 03 2015

NOTE:  "FAIR" INDICATES FEW OR NO CLOUDS BELOW 12,000 FEET WITH NO
SIGNIFICANT WEATHER AND/OR OBSTRUCTIONS TO VISIBILITY.

KSZ001>006-013>018-027>032-041>047-040300-
NORTHWEST KANSAS

CITY           SKY/WX    TMP DP  RH WIND       PRES   REMARKS
GOODLAND       CLOUDY    27  15  61 NE8       29.95R
HAYS           PTCLDY    28  10  47 NE8       29.99R
HILL CITY      PTCLDY    24  11  57 NE10      30.00R WCI  14
RUSSELL        MOCLDY    28  15  58 N10       29.97R WCI  19
$$

KSZ061>065-074>080-084>089-040300-
SOUTHWEST KANSAS

CITY           SKY/WX    TMP DP  RH WIND       PRES   REMARKS
DODGE CITY     PTCLDY    31  20  63 N10       29.93R WCI  22
ELKHART          N/A     31  22  69 N14         N/A  WCI  21
GARDEN CITY    PTCLDY    28  20  71 N9        29.93R
GREAT BEND     CLOUDY    32  16  51 N13       29.97R WCI  22
LIBERAL        CLOUDY    36  27  69 NE13      29.92R WCI  27
PRATT          CLOUDY    34  23  64 NE13      29.94R WCI  25
$$

KSZ066>073-081>083-090>101-040300-
SOUTHEAST KANSAS

CITY           SKY/WX    TMP DP  RH WIND       PRES   REMARKS
CHANUTE        CLOUDY    42  34  73 N10       29.88F
COFFEYVILLE    CLOUDY    44  38  79 N10       29.88R
HUTCHINSON     CLOUDY    35  21  56 N10       29.96R WCI  27
MEDICINE LODGE   N/A     39  27  62 N16G23    29.92R WCI  30
NEWTON         CLOUDY    34  21  60 N18       29.94R WCI  23
PARSONS        CLOUDY    42  39  89 CALM      29.89R
WICHITA INTL   CLOUDY    39  25  57 N13       29.92R WCI  31
WICHITA JABRA  CLOUDY    36  26  67 N17G25    29.91R WCI  26
WICHITA MCCONL CLOUDY    38  27  64 N15G24    29.92R WCI  29
WINFIELD       CLOUDY    41  31  67 N10       29.91R
$$

KSZ007>012-019>026-033>040-048>060-102>105-040300-
NORTHEAST KANSAS

CITY           SKY/WX    TMP DP  RH WIND       PRES   REMARKS
CONCORDIA        N/A     29  10  45 NE14      30.01R WCI  18
EMPORIA        CLOUDY    35  25  66 N13       29.93R WCI  26
LAWRENCE       CLOUDY    34  24  67 N12       29.96R WCI  25
MANHATTAN      CLOUDY    34  19  54 N12       30.00R WCI  25
MARYSVILLE     CLOUDY    30  12  47 N12       30.01R WCI  21
OLATHE IND     CLOUDY    35  27  72 N21       29.96R WCI  24
OLATHE EXE     CLOUDY    37  29  72 N18       29.94R WCI  27
SALINA         CLOUDY    34  17  50 N16       29.99R WCI  24
TOPEKA BILLARD CLOUDY    34  22  61 N6        29.98R
TOPEKA FORBES  CLOUDY    35  23  61 N14       29.95R WCI  26
$$



USA.gov is the U.S. government's official web portal to all federal, state and local government web resources and services.